DW9064 Weather Reports


Display with metric or nautical units.
time (UTC)temp
F
wind
direction
speed
MPH
gust
MPH
rain 1hr
in
rain 24hr
in
rain mn
in
humidity
%
barometer
mb
20260902105622 53 350 4.0 6.0 0.00 0.00 0.00 79 1007.1
20260902103822 53 346 5.0 8.0 0.00 0.00 0.00 78 1007.0
20260902102922 53 354 4.0 8.0 0.00 0.00 0.00 78 1007.1
20260902102022 53 12 5.0 7.0 0.00 0.00 0.00 77 1007.2
20260902101122 53 2 3.0 7.0 0.00 0.00 0.00 78 1007.1
20260902100222 53 334 4.0 8.0 0.00 0.00 0.00 77 1006.9
20260902095322 53 339 5.0 8.0 0.00 0.00 0.00 76 1007.1
20260902093522 53 348 4.0 8.0 0.00 0.00 0.00 74 1007.2
20260902092622 54 1 4.0 8.0 0.00 0.00 0.00 73 1007.1
20260902091721 55 11 3.0 8.0 0.00 0.00 0.00 73 1007.1
20260902090822 55 5 2.0 9.0 0.00 0.00 0.00 73 1007.1
20260902085922 55 352 5.0 8.0 0.00 0.00 0.00 72 1007.4
20260902085022 55 343 6.0 8.0 0.00 0.00 0.00 71 1007.3
20260902081422 58 351 6.0 8.0 0.00 0.00 0.00 67 1007.4
20260902080521 58 358 6.0 9.0 0.00 0.00 0.00 67 1007.6
20260902075621 59 22 2.0 9.0 0.00 0.00 0.00 66 1007.6
20260902073821 59 357 4.0 9.0 0.00 0.00 0.00 67 1007.5
20260902072921 58 344 5.0 8.0 0.00 0.00 0.00 68 1007.4
20260902072021 58 339 5.0 8.0 0.00 0.00 0.00 67 1007.4
20260902070221 58 335 6.0 10.0 0.00 0.00 0.00 64 1007.3
20260902065321 59 349 6.0 9.0 0.00 0.00 0.00 64 1007.4
20260902064421 60 353 4.0 7.0 0.00 0.00 0.00 62 1007.2
20260902063521 61 4 2.0 8.0 0.00 0.00 0.00 60 1007.2
20260902062621 62 356 4.0 9.0 0.00 0.00 0.00 58 1007.0
20260902061722 61 345 2.0 9.0 0.00 0.00 0.00 61 1007.2
20260902060821 62 353 4.0 11.0 0.00 0.00 0.00 59 1007.2
20260902055921 60 340 3.0 10.0 0.00 0.00 0.00 62 1007.3
20260902055021 60 357 5.0 8.0 0.00 0.00 0.00 62 1007.2
20260902054121 60 348 6.0 8.0 0.00 0.00 0.00 61 1007.1
20260902053221 60 336 6.0 10.0 0.00 0.00 0.00 61 1007.2
20260902052321 59 335 6.0 10.0 0.00 0.00 0.00 61 1007.1
20260902051421 59 333 7.0 10.0 0.00 0.00 0.00 61 1007.0
20260902050521 59 316 7.0 9.0 0.00 0.00 0.00 61 1007.1
20260902045621 60 328 8.0 10.0 0.00 0.00 0.00 60 1007.0
20260902044721 60 337 8.0 10.0 0.00 0.00 0.00 59 1007.0
20260902042921 61 339 5.0 8.0 0.00 0.00 0.00 56 1007.0
20260902042021 61 316 7.0 10.0 0.00 0.00 0.00 59 1006.9
20260902040221 63 337 8.0 10.0 0.00 0.00 0.00 55 1006.8
20260902035321 63 330 7.0 9.0 0.00 0.00 0.00 56 1006.8
20260902034421 63 324 8.0 9.0 0.00 0.00 0.00 56 1006.8
20260902033521 64 318 7.0 9.0 0.00 0.00 0.00 56 1006.7
20260902031721 65 334 7.0 9.0 0.00 0.00 0.00 53 1006.5
20260902030821 66 346 6.0 8.0 0.00 0.00 0.00 51 1006.5
20260902025021 68 325 5.0 9.0 0.00 0.00 0.00 48 1006.4
20260902024121 68 334 6.0 9.0 0.00 0.00 0.00 45 1006.4
20260902023221 69 332 7.0 8.0 0.00 0.00 0.00 45 1006.4
20260902022321 70 319 6.0 8.0 0.00 0.00 0.00 43 1006.4
20260902021421 70 316 7.0 8.0 0.00 0.00 0.00 41 1006.5
20260902020521 72 320 6.0 8.0 0.00 0.00 0.00 36 1006.5
20260902015621 75 319 6.0 7.0 0.00 0.00 0.00 31 1006.8
20260902014721 78 127 3.0 7.0 0.00 0.00 0.00 23 1006.9
20260902013821 78 164 3.0 11.0 0.00 0.00 0.00 20 1006.9
20260902012921 78 138 2.0 15.0 0.00 0.00 0.00 20 1007.0
20260902012026 79 171 5.0 16.0 0.00 0.00 0.00 18 1007.1
20260902011120 79 192 11.0 20.0 0.00 0.00 0.00 17 1007.0
20260902010221 80 173 10.0 21.0 0.00 0.00 0.00 16 1006.7
20260902004421 82 192 11.0 15.0 0.00 0.00 0.00 13 1006.4
20260902003521 82 184 11.0 14.0 0.00 0.00 0.00 12 1006.0
20260902002621 82 191 6.0 11.0 0.00 0.00 0.00 14 1006.0
20260902001720 83 191 5.0 15.0 0.00 0.00 0.00 14 1006.0
20260902000820 83 157 11.0 18.0 0.00 0.00 0.00 13 1006.0
20260901235920 82 174 11.0 17.0 0.00 0.00 0.00 14 1005.9
20260901235020 79 232 9.0 15.0 0.00 0.00 0.00 19 1005.7
20260901232320 76 320 5.0 6.0 0.00 0.00 0.00 39 1005.5
20260901231420 78 321 4.0 6.0 0.00 0.00 0.00 36 1005.5
20260901230520 81 350 3.0 4.0 0.00 0.00 0.00 31 1005.4
20260901224720 84 83 2.0 5.0 0.00 0.00 0.00 17 1005.3
20260901223820 85 73 2.0 6.0 0.00 0.00 0.00 16 1005.3
20260901222920 86 108 1.0 8.0 0.00 0.00 0.00 16 1005.3
20260901222021 87 123 3.0 9.0 0.00 0.00 0.00 14 1005.5
20260901221120 87 88 3.0 8.0 0.00 0.00 0.00 14 1005.5
20260901220220 87 95 4.0 8.0 0.00 0.00 0.00 13 1005.4
20260901215320 85 88 2.0 8.0 0.00 0.00 0.00 15 1005.6
20260901213520 85 101 2.0 8.0 0.00 0.00 0.00 16 1005.8
20260901212622 85 105 3.0 10.0 0.00 0.00 0.00 17 1005.8
20260901211720 85 80 3.0 8.0 0.00 0.00 0.00 20 1005.9
20260901205920 81 62 2.0 8.0 0.00 0.00 0.00 27 1006.2
20260901205020 81 73 4.0 8.0 0.00 0.00 0.00 26 1006.5
20260901204120 82 67 2.0 8.0 0.00 0.00 0.00 25 1006.6
20260901203220 82 84 0.0 8.0 0.00 0.00 0.00 25 1006.7
20260901202320 83 106 3.0 9.0 0.00 0.00 0.00 25 1006.8
20260901201420 80 113 4.0 8.0 0.00 0.00 0.00 29 1006.9
20260901195620 80 112 4.0 9.0 0.00 0.00 0.00 29 1007.2
20260901194720 79 82 4.0 8.0 0.00 0.00 0.00 30 1007.5
20260901193820 77 70 2.0 8.0 0.00 0.00 0.00 35 1007.7
20260901191120 76 93 3.0 6.0 0.00 0.00 0.00 37 1008.1
20260901190220 74 102 4.0 8.0 0.00 0.00 0.00 39 1008.3
20260901185320 73 107 2.0 8.0 0.00 0.00 0.00 41 1008.6
20260901184420 71 125 4.0 9.0 0.00 0.00 0.00 42 1008.6
20260901182620 71 85 2.0 9.0 0.00 0.00 0.00 46 1008.6
20260901181720 70 117 2.0 8.0 0.00 0.00 0.00 47 1008.8
20260901180820 69 97 3.0 8.0 0.00 0.00 0.00 47 1008.9
20260901175020 68 71 3.0 8.0 0.00 0.00 0.00 50 1009.0
20260901174120 69 50 4.0 8.0 0.00 0.00 0.00 49 1009.2
20260901173220 68 70 2.0 8.0 0.00 0.00 0.00 51 1009.2
20260901172320 67 81 3.0 8.0 0.00 0.00 0.00 52 1009.1
20260901171420 67 90 4.0 10.0 0.00 0.00 0.00 54 1009.5
20260901170520 66 35 2.0 9.0 0.00 0.00 0.00 54 1009.7
20260901165619 65 72 6.0 9.0 0.00 0.00 0.00 57 1009.9
20260901164720 64 113 4.0 8.0 0.00 0.00 0.00 57 1010.2
20260901162920 64 60 3.0 8.0 0.00 0.00 0.00 60 1010.2
20260901162019 62 84 3.0 4.0 0.00 0.00 0.00 63 1010.3
20260901161120 61 88 0.0 7.0 0.00 0.00 0.00 63 1010.4
20260901160219 60 54 3.0 8.0 0.00 0.00 0.00 66 1010.7
20260901155320 60 57 2.0 9.0 0.00 0.00 0.00 65 1010.9
20260901154419 60 66 2.0 8.0 0.00 0.00 0.00 66 1010.9
20260901153520 60 90 3.0 7.0 0.00 0.00 0.00 67 1011.1
20260901152620 60 58 2.0 6.0 0.00 0.00 0.00 68 1011.0
20260901151720 59 35 2.0 8.0 0.00 0.00 0.00 72 1011.2
20260901150820 58 54 2.0 11.0 0.00 0.00 0.00 72 1011.4
20260901145919 58 51 4.0 11.0 0.00 0.00 0.00 72 1011.4
20260901145020 58 28 2.0 11.0 0.00 0.00 0.00 74 1011.1
20260901144119 56 52 3.0 7.0 0.00 0.00 0.00 78 1011.1
20260901143220 54 50 2.0 4.0 0.00 0.00 0.00 82 1011.2
20260901142320 52 23 1.0 4.0 0.00 0.00 0.00 85 1011.3
20260901135619 49 7 2.0 5.0 0.00 0.00 0.00 87 1011.4
20260901133819 49 25 2.0 5.0 0.00 0.00 0.00 87 1011.3
20260901132919 49 4 3.0 6.0 0.00 0.00 0.00 86 1011.3
20260901132055 49 355 4.0 8.0 0.00 0.00 0.00 85 1011.3
20260901131119 49 351 5.0 8.0 0.00 0.00 0.00 84 1011.4
20260901130219 50 345 4.0 9.0 0.00 0.00 0.00 85 1011.4
20260901125319 49 31 4.0 7.0 0.00 0.00 0.00 85 1011.4
20260901124419 49 16 2.0 8.0 0.00 0.00 0.00 84 1011.5
20260901123519 50 19 3.0 8.0 0.00 0.00 0.00 84 1011.6
20260901122619 50 11 4.0 7.0 0.00 0.00 0.00 83 1011.6
20260901121719 50 26 4.0 5.0 0.00 0.00 0.00 82 1011.5
20260901120819 51 23 2.0 8.0 0.00 0.00 0.00 82 1011.4
20260901115919 50 13 4.0 8.0 0.00 0.00 0.00 82 1011.5
20260901115019 51 32 4.0 8.0 0.00 0.00 0.00 83 1011.4
20260901114119 50 349 3.0 8.0 0.00 0.00 0.00 82 1011.3
20260901113219 50 5 4.0 7.0 0.00 0.00 0.00 80 1011.3